Location: *
(32.8140°S, 174.6161°E)
Time: 22:55:49
(UTC+00:00)

Cosmos 1420 Rocket - Pass Details

Date: 10 December 2019
Orbit: 754 x 781 km, 74.0° (Epoch: 18 January)

Event Time Altitude Azimuth Distance (km) Brightness Sun altitude
Rises 15:35:56 0° 196° (SSW) 3,292 7.6 -16.4°
Reaches altitude 10° 15:38:21 10° 195° (SSW) 2,354 6.9 -16.0°
Maximum altitude 15:43:43 82° 107° (ESE) 792 4.1 -15.2°
Drops below altitude 10° 15:48:59 10° 18° (NNE) 2,308 6.3 -14.3°
Sets 15:51:20 0° 17° (NNE) 3,223 7.0 -13.9°
